Lid_Strength_Index
7 6 7 7 7 7 7 7 8 7 7 6 6 6 5 5 5 5 4 4 3 3 3 2 2 1 1 1 1 0 1 1 1 1 0 0 1 1 1 0 0 0 0 0
8 7 6 7 7 7 7 7 7 7 7 4 4 4 5 5 5 5 4 4 3 3 2 2 2 2 1 1 1 0 1 1 0 0 1 1 1 1 1 1 1 0 1 1
9 7 7 9 7 7 6 6 6 8 6 5 5 5 5 5 5 5 4 4 3 3 2 2 2 1 1 1 0 0 1 1 1 1 1 1 1 1 1 1 1 1 1 1
9 8 12 7 5 6 6 6 5 5 5 4 5 5 4 4 4 4 4 3 3 2 2 2 1 1 1 1 1 1 1 1 1 1 1 1 1 1 1 1 1 2 1 1
10 9 8 7 6 6 7 7 5 5 4 4 4 4 5 3 3 3 3 3 2 2 1 1 1 1 1 1 1 1 1 1 1 1 1 1 1 2 1 1 2 2 1 1
8 11 12 7 5 4 5 9 4 4 4 4 5 9 6 3 3 3 2 2 2 2 2 1 1 1 1 2 2 2 1 1 1 0 1 1 1 1 1 1 2 1 1 1
8 9 8 5 5 4 9 8 5 4 4 4 6 6 4 3 3 2 2 2 1 1 2 1 1 1 2 2 2 1 1 1 1 1 1 1 1 1 1 2 2 2 2 1
8 9 11 5 5 8 6 4 4 4 4 5 5 4 4 3 3 3 3 2 2 2 2 1 1 1 2 2 1 1 1 2 1 1 1 1 1 1 1 2 2 2 2 2
7 8 5 4 5 4 4 4 4 4 4 3 4 4 3 3 3 3 3 2 1 2 2 1 1 1 2 2 1 1 1 1 1 1 1 1 1 1 2 2 3 3 3 3
6 5 5 4 4 4 3 4 3 3 3 3 4 3 4 3 3 3 2 2 1 2 2 2 1 1 1 1 1 1 2 2 1 3 3 3 2 3 2 3 3 4 4 5
6 5 4 4 4 4 4 3 3 3 3 3 3 4 3 3 3 3 3 2 2 2 2 2 1 1 1 1 1 2 3 3 2 2 3 5 7 5 5 6 4 4 4 5
7 4 5 4 3 3 3 3 3 3 3 3 3 3 3 2 2 2 2 1 1 2 2 2 1 1 1 0 1 2 2 2 3 2 2 3 4 6 8 9 10 11 9 5
4 3 3 3 3 2 3 3 3 3 2 3 3 2 2 2 2 3 2 2 2 2 2 1 1 1 0 0 0 1 1 2 2 2 3 4 4 4 6 7 10 11 11 10
3 3 4 3 4 2 2 2 3 2 2 2 2 2 2 2 2 2 2 2 1 1 1 1 1 1 0 -0 0 0 1 3 1 1 3 3 5 5 5 6 7 7 10 11
3 2 3 2 2 2 2 2 3 3 3 3 2 2 2 2 2 2 1 2 1 1 1 1 1 1 0 -0 0 0 1 1 1 1 1 3 4 5 5 5 6 6 5 7
3 3 3 3 3 3 3 3 3 3 3 3 2 2 2 2 1 1 1 2 3 3 2 1 1 0 -0 -0 0 1 1 1 1 1 1 1 2 3 3 5 5 4 4 4
4 4 4 4 3 3 3 3 3 3 2 3 2 2 2 1 2 2 2 1 2 2 1 1 1 -0 -0 -0 0 1 1 1 0 1 1 2 2 3 3 3 3 3 3 3
2 2 2 3 3 3 3 3 2 2 2 2 2 2 2 2 2 2 2 2 2 2 1 1 1 0 -0 0 0 1 1 0 1 1 1 1 1 1 1 2 2 2 2 2
2 3 3 3 3 3 2 2 2 2 2 2 2 2 2 2 2 2 2 2 3 2 2 1 1 1 -0 0 0 1 0 0 0 1 0 1 1 1 1 1 2 2 2 2
3 3 3 3 2 2 3 2 2 2 2 2 2 2 2 2 2 2 2 2 2 2 0 1 0 0 -0 -0 0 1 0 0 0 0 0 1 1 1 1 2 1 1 1 1
3 3 3 3 2 2 2 2 2 2 2 1 2 2 2 2 2 2 3 3 2 1 1 1 0 0 0 -0 0 1 0 0 -0 0 1 0 1 0 1 1 1 1 1 1
3 3 3 3 3 2 2 2 1 2 2 2 1 2 2 2 2 2 2 2 1 4 1 1 0 1 1 2 0 -0 0 -1 -0 0 1 0 0 1 0 1 1 1 1 1
2 2 2 3 3 3 2 2 2 2 2 2 2 2 2 2 2 3 3 1 1 2 1 1 1 1 1 0 0 -0 -0 0 1 1 1 1 1 1 1 1 1 1 0 1
2 2 3 2 2 3 3 2 2 2 2 1 1 1 2 2 2 0 0 2 3 2 1 1 1 3 4 0 0 0 0 1 1 0 0 3 0 0 0 0 0 0 1 2
2 2 2 2 3 3 2 2 2 2 2 2 1 1 1 0 1 1 1 0 3 1 1 4 3 3 0 0 0 0 0 0 0 0 0 1 1 1 0 1 1 1 0 0
2 3 2 2 2 2 2 1 2 2 1 2 2 1 1 1 1 1 1 1 0 1 0 0 0 0 0 0 0 0 0 1 1 0 1 0 0 1 0 0 0 -0 0 -0
2 5 2 2 2 1 1 2 2 2 2 2 2 1 1 1 1 1 2 1 0 0 -0 0 0 0 0 1 1 0 0 0 2 0 0 -0 -0 0 0 1 0 -0 -0 -0